"Pseudo-MPEC" for C1DZXT2

Created 2019 Nov 13 9:07:04 UT using Find_Orb

Click here for an explanation of pseudo-MPECs

 
 Astrometry: 
     C1DZXT2  C2019 11 04.40800 08 53 05.90 +36 41 01.2    ~B4Ab 21.0 GVNEOCPG96
     C1DZXT2  C2019 11 04.41275 08 52 57.34 +36 42 09.8    ~B4Ab 20.1 GVNEOCPG96
     C1DZXT2  C2019 11 04.41750 08 52 48.75 +36 43 17.8    ~B4Ab 20.4 GVNEOCPG96
     C1DZXT2  C2019 11 04.42223 08 52 40.32 +36 44 24.6    ~B4Ab 21.5 GVNEOCPG96
     C1DZXT2  C2019 11 04.46568208 51 21.42 +36 54 32.7    ~B4Bq 20.7 GVNEOCPH01
     C1DZXT2  C2019 11 04.46995208 51 13.72 +36 55 31.8    ~B4Bq 20.8 GVNEOCPH01
     C1DZXT2  C2019 11 04.47987408 50 55.86 +36 57 48.2    ~B4Bq 20.7 GVNEOCPH01
     C1DZXT2  C2019 11 04.48958408 50 38.36 +37 00 01.2    ~B4Bq 20.6 GVNEOCPH01
     C1DZXT2  C2019 11 04.49260 08 50 33.91 +37 00 43.8    ~B4CM       VNEOCPI52
     C1DZXT2  C2019 11 04.49651 08 50 26.81 +37 01 37.8    ~B4CM       VNEOCPI52
     C1DZXT2  C2019 11 04.49846 08 50 23.37 +37 02 03.6    ~B4CM       VNEOCPI52

Station data:
(G96) Mt. Lemmon Survey  (N32.442754 W110.788720)  US/Arizona.  Observers T.
   A. Pruyne, B. M. Africano, E. J. Christensen, G. A. Farneth, D. C. Fuls,
   A. R. Gibbs, A. D. Grauer, H. Gröller, J. A. Johnson, R. A. Kowalski, S.
   M. Larson, G. J. Leonard, D. Rankin, R. L. Seaman, F. C. Shelly. 1.5-m
   reflector + 10K CCD.
(H01) Magdalena Ridge Observatory, Socorro  (N33.984833 W107.189333)  US/New
   Mexico.  Observers W. H. Ryan, E. V. Ryan. Measurer W. H. Ryan. 2.4-m
   f/8.9 reflector + CCD.
(I52) Steward Observatory, Mt. Lemmon Station  (N32.442547 W110.788920)
   US/Arizona.  Observers T. A. Pruyne, B. M. Africano, E. J. Christensen, G.
   A. Farneth, D. C. Fuls, A. R. Gibbs, A. D. Grauer, H. Gröller, J. A.
   Johnson, R. A. Kowalski, S. M. Larson, G. J. Leonard, D. Rankin, R. L.
   Seaman, F. C. Shelly. 1.0-m reflector + CCD.

Orbital elements:  C1DZXT2
   Perihelion 2019 Oct 10.575173 +/- 2.66 TT = 13:48:14 (JD 2458767.075173)
Epoch 2019 Nov  4.0 TT = JDT 2458791.5   Earth MOID: 0.0099   Ju: 0.1712
M   1.68081815 +/- 2.7              Sa: 0.0516                AutoNEOCP
n   0.06881596 +/- 0.0894           Peri.  329.33894 +/- 2.5
a   5.89761691 +/- 5.11             Node    38.61017 +/- 0.23
e   0.8456694 +/- 0.133             Incl.    8.89405 +/- 0.6
P  14.32                   H 24.9   G  0.15   U 11.1  
q 0.91018229 +/- 0.00684    Q 10.8850515 +/- 6.88
From 11 observations 2019 Nov. 4 (2.2 hr); mean residual 0".39
Residuals in arcseconds: 
191104 G96  .47+  .39-    191104 H01  .38+  .23-    191104 I52  .52+  .53-    
191104 G96  .03+  .21+    191104 H01  .15+  .03-    191104 I52  .44-  .32+    
191104 G96  .73-  .39+    191104 H01  .07-  .14+    191104 I52  .28+  .33-    
191104 G96  .03+  .16-    191104 H01  .67-  .68+    

Ephemerides (geocentric):
Date (UTC) HH   RA              Dec         delta   r     elong  mag " sig PA
---- -- -- --  -------------   -----------  ------ ------ -----  --- ---- ---
2019 11 13 09  06 42 35.476   +46 47 39.77  .11409 1.0640 128.2 22.1 2240 102
2019 11 13 10  06 42 18.402   +46 48 08.85  .11444 1.0643 128.3 22.1 2248 102
2019 11 13 11  06 42 01.411   +46 48 37.55  .11478 1.0647 128.4 22.1 2256 102
2019 11 13 12  06 41 44.503   +46 49 05.89  .11512 1.0650 128.4 22.1 2264 102
2019 11 13 13  06 41 27.677   +46 49 33.87  .11546 1.0653 128.5 22.1 2272 102
2019 11 13 14  06 41 10.931   +46 50 01.50  .11580 1.0657 128.6 22.1 2280 102
2019 11 13 15  06 40 54.266   +46 50 28.77  .11614 1.0660 128.7 22.1 2287 101
2019 11 13 16  06 40 37.681   +46 50 55.69  .11648 1.0664 128.8 22.1 2295 101
2019 11 13 17  06 40 21.174   +46 51 22.27  .11682 1.0667 128.8 22.2 2303 101
2019 11 13 18  06 40 04.747   +46 51 48.51  .11717 1.0671 128.9 22.2 2310 101
2019 11 13 19  06 39 48.397   +46 52 14.41  .11751 1.0674 129.0 22.2 2318 101
2019 11 13 20  06 39 32.124   +46 52 39.98  .11785 1.0677 129.1 22.2 2325 101
2019 11 13 21  06 39 15.928   +46 53 05.21  .11819 1.0681 129.2 22.2 2333 101
2019 11 13 22  06 38 59.807   +46 53 30.12  .11853 1.0684 129.2 22.2 2340 101
2019 11 13 23  06 38 43.762   +46 53 54.70  .11887 1.0688 129.3 22.2 2348 101
2019 11 14 00  06 38 27.792   +46 54 18.97  .11922 1.0691 129.4 22.2 2355 101
2019 11 14 01  06 38 11.896   +46 54 42.91  .11956 1.0695 129.5 22.2 2363 101
2019 11 14 02  06 37 56.074   +46 55 06.55  .11990 1.0698 129.5 22.2 2370 101
2019 11 14 03  06 37 40.325   +46 55 29.87  .12024 1.0702 129.6 22.2 2377 101
2019 11 14 04  06 37 24.648   +46 55 52.88  .12059 1.0705 129.7 22.2 2385 101
2019 11 14 05  06 37 09.042   +46 56 15.59  .12093 1.0709 129.8 22.2 2392 101
2019 11 14 06  06 36 53.509   +46 56 38.00  .12127 1.0712 129.9 22.2 2399 101
2019 11 14 07  06 36 38.045   +46 57 00.11  .12161 1.0715 129.9 22.2 2406 101
2019 11 14 08  06 36 22.652   +46 57 21.92  .12196 1.0719 130.0 22.2 2413 101
2019 11 14 09  06 36 07.329   +46 57 43.44  .12230 1.0722 130.1 22.2 2421 101
2019 11 14 10  06 35 52.075   +46 58 04.67  .12264 1.0726 130.2 22.2 2428 101
2019 11 14 11  06 35 36.889   +46 58 25.62  .12299 1.0729 130.2 22.2 2435 100
2019 11 14 12  06 35 21.771   +46 58 46.28  .12333 1.0733 130.3 22.2 2442 100
2019 11 14 13  06 35 06.721   +46 59 06.66  .12367 1.0736 130.4 22.2 2449 100
2019 11 14 14  06 34 51.738   +46 59 26.76  .12402 1.0740 130.5 22.2 2456 100
2019 11 14 15  06 34 36.821   +46 59 46.58  .12436 1.0743 130.5 22.3 2463 100
2019 11 14 16  06 34 21.970   +47 00 06.14  .12470 1.0747 130.6 22.3 2470 100
2019 11 14 17  06 34 07.184   +47 00 25.42  .12505 1.0750 130.7 22.3 2477 100
2019 11 14 18  06 33 52.464   +47 00 44.43  .12539 1.0754 130.7 22.3 2483 100
2019 11 14 19  06 33 37.807   +47 01 03.18  .12574 1.0757 130.8 22.3 2490 100
2019 11 14 20  06 33 23.215   +47 01 21.66  .12608 1.0761 130.9 22.3 2497 100
2019 11 14 21  06 33 08.686   +47 01 39.89  .12642 1.0764 131.0 22.3 2504 100
2019 11 14 22  06 32 54.220   +47 01 57.86  .12677 1.0768 131.0 22.3 2511 100
2019 11 14 23  06 32 39.817   +47 02 15.57  .12711 1.0771 131.1 22.3 2517 100
2019 11 15 00  06 32 25.475   +47 02 33.03  .12746 1.0775 131.2 22.3 2524 100
2019 11 15 01  06 32 11.195   +47 02 50.23  .12780 1.0778 131.3 22.3 2531 100
2019 11 15 02  06 31 56.976   +47 03 07.19  .12815 1.0782 131.3 22.3 2537 100
2019 11 15 03  06 31 42.818   +47 03 23.91  .12849 1.0785 131.4 22.3 2544 100
2019 11 15 04  06 31 28.720   +47 03 40.38  .12883 1.0789 131.5 22.3 2550 100
2019 11 15 05  06 31 14.681   +47 03 56.60  .12918 1.0792 131.5 22.3 2557 100
2019 11 15 06  06 31 00.702   +47 04 12.59  .12952 1.0796 131.6 22.3 2563 100
2019 11 15 07  06 30 46.782   +47 04 28.34  .12987 1.0799 131.7 22.3 2570 100
2019 11 15 08  06 30 32.919   +47 04 43.86  .13021 1.0803 131.8 22.3 2576  99